Flag for Brazil Weather past 2 weeks in Cuiabá, Mato Grosso, Brazil

Now
93 °F

Scattered clouds.


Feels Like: 99 °F
Forecast: 78 / 94 °F
Wind: 14 mph from North

Location: Cuiaba Aeroporto

Current Time: Dec 29, 2014 at 1:43:01 PM

Latest Report: Dec 29, 2014 at 1:00 PM


Visibility: N/A

Pressure: 29.89 "Hg

Humidity: 47%

Dew point: 70 °F

Location of CuiabáLocation

Historic Weather in Cuiabá — Graph

°F

Cuiabá temperature yesterday

Maximum temperature yesterday: 95 °F (at 2:00 PM)
Minimum temperature yesterday: 77 °F (at 6:00 AM)
Average temperature yesterday: 86 °F

Past Weeks' High & Low Weather Summary

 TemperatureHumidityPressure
High95 °F (Dec 28, 2:00 PM)100% (Dec 26, 12:00 AM)30.04 "Hg (Dec 26, 12:00 AM)
Low72 °F (Dec 24, 5:00 AM)41% (Dec 27, 5:00 PM)29.68 "Hg (Dec 19, 5:00 PM)
Average81 °F78%29.85 "Hg
* Reported Dec 14 1:00 PM — Dec 29 1:00 PM, Cuiabá, Weather by CustomWeather, © 2014

Note: Actual official high and low records may vary slightly from our data, if they occured in-between our weather recording intervals... More about our weather records

Advertising

Cuiabá weather history for previous 24 hours

 ConditionsComfort  
Time TempWeatherWind HumidityBarometerVisibility
1:00 PM
Dec 29
93 °FScattered clouds.14 mph47%29.89 "HgN/A
12:00 PM93 °FPassing clouds.12 mph49%29.92 "HgN/A
11:00 AM91 °FSunny.12 mph52%29.95 "Hg10 mi
10:00 AM88 °FSunny.9 mph59%29.95 "Hg10 mi
9:00 AM86 °FSunny.9 mph66%29.95 "Hg10 mi
8:00 AM82 °FSunny.2 mph74%29.92 "Hg10 mi
7:00 AM77 °FPassing clouds.6 mph89%29.92 "HgN/A
6:00 AM77 °FClear.8 mph83%29.89 "Hg10 mi
5:00 AM77 °FClear.3 mph89%29.86 "Hg10 mi
4:00 AM77 °FClear.7 mph89%29.86 "Hg10 mi
3:00 AM79 °FClear.3 mph79%29.83 "Hg10 mi
2:00 AM81 °FClear.3 mph74%29.86 "Hg10 mi
1:00 AM81 °FClear.2 mph79%29.86 "Hg10 mi
12:00 AM81 °FClear.No wind79%29.89 "Hg10 mi
11:00 PM
Dec 28
82 °FClear.5 mph74%29.86 "Hg10 mi
10:00 PM81 °FPassing clouds.2 mph79%29.83 "HgN/A
9:00 PM84 °FPassing clouds.2 mph62%29.80 "HgN/A
8:00 PM88 °FPassing clouds.No wind52%29.80 "HgN/A
7:00 PM93 °FPassing clouds.7 mph44%29.77 "HgN/A
6:00 PM93 °FPassing clouds.8 mph44%29.77 "HgN/A
5:00 PM95 °FPassing clouds.8 mph44%29.77 "HgN/A
4:00 PM95 °FPassing clouds.10 mph44%29.80 "HgN/A
3:00 PM95 °FScattered clouds.12 mph41%29.83 "HgN/A
2:00 PM95 °FPartly sunny.12 mph47%29.86 "HgN/A
1:00 PM91 °FPartly sunny.13 mph49%29.89 "HgN/A
Weather by CustomWeather, © 2014

See weather overviewHow to use our weather pages